• In Netherlands
  • List of Countries
  • For 7 days
  • Water Temperature
  • Satellite Maps
  • Weather Map
  • Weather Widgets
  • user-avatar
    Login

    Hourly Weather Zhlobin

    Today, 23 July, Sunday

    Time Temperature Precipitation Wind Pressure Humidity
    00:00 +16°C° 0 mm 1 mps 750 mmHg 89%
    01:00 +15°C° 0 mm 1 mps 750 mmHg 90%
    02:00 +15°C° 0 mm 1 mps 750 mmHg 92%
    03:00 +14°C° 0 mm 1 mps 750 mmHg 92%
    04:00 +14°C° 0 mm 1 mps 751 mmHg 92%
    05:00 +14°C° 0 mm 1 mps 751 mmHg 92%
    06:00 +16°C° 0 mm 1 mps 751 mmHg 83%
    07:00 +19°C° 0 mm 1 mps 751 mmHg 75%
    08:00 +21°C° 0 mm 1 mps 751 mmHg 66%
    09:00 +22°C° 0 mm 1 mps 751 mmHg 60%
    10:00 +24°C° 0 mm 1 mps 751 mmHg 53%
    11:00 +25°C° 0 mm 1 mps 751 mmHg 46%
    12:00 +26°C° 0 mm 1 mps 751 mmHg 44%
    13:00 +26°C° 0 mm 1 mps 751 mmHg 42%
    14:00 +27°C° 0 mm 1 mps 750 mmHg 40%
    15:00 +27°C° 0 mm 1 mps 750 mmHg 41%
    16:00 +27°C° 0 mm 1 mps 750 mmHg 42%
    17:00 +26°C° 0 mm 1 mps 750 mmHg 43%
    18:00 +24°C° 0 mm 1 mps 750 mmHg 48%
    19:00 +23°C° 0 mm 1 mps 750 mmHg 54%
    20:00 +20°C° 0 mm 2 mps 750 mmHg 59%
    21:00 +19°C° 0 mm 2 mps 750 mmHg 63%
    22:00 +18°C° 0 mm 2 mps 750 mmHg 66%
    23:00 +17°C° 0 mm 2 mps 750 mmHg 70%

    Tomorrow, 24 July, Monday

    Time Temperature Precipitation Wind Pressure Humidity
    00:00 +17°C° 0 mm 2 mps 749 mmHg 72%
    01:00 +17°C° 0 mm 2 mps 749 mmHg 74%
    02:00 +16°C° 0 mm 2 mps 749 mmHg 76%
    03:00 +16°C° 0 mm 2 mps 749 mmHg 76%
    04:00 +16°C° 0 mm 2 mps 749 mmHg 77%
    05:00 +16°C° 0 mm 2 mps 749 mmHg 77%
    06:00 +17°C° 0 mm 3 mps 748 mmHg 75%
    07:00 +19°C° 0 mm 3 mps 748 mmHg 73%
    08:00 +20°C° 0 mm 3 mps 748 mmHg 70%
    09:00 +21°C° 0 mm 3 mps 748 mmHg 68%
    10:00 +22°C° 0 mm 4 mps 747 mmHg 65%
    11:00 +23°C° 0 mm 4 mps 747 mmHg 62%
    12:00 +25°C° 0.1 mm 4 mps 747 mmHg 60%
    13:00 +25°C° 0.1 mm 4 mps 746 mmHg 59%
    14:00 +26°C° 0.1 mm 4 mps 746 mmHg 57%
    15:00 +26°C° 0.2 mm 4 mps 746 mmHg 59%
    16:00 +27°C° 0.2 mm 4 mps 745 mmHg 60%
    17:00 +27°C° 0.2 mm 3 mps 745 mmHg 61%
    18:00 +25°C° 0.1 mm 3 mps 745 mmHg 67%
    19:00 +24°C° 0.1 mm 3 mps 745 mmHg 73%
    20:00 +21°C° 0.1 mm 3 mps 745 mmHg 78%
    21:00 +21°C° 0.7 mm 3 mps 744 mmHg 81%
    22:00 +20°C° 0.7 mm 3 mps 744 mmHg 84%
    23:00 +19°C° 0.7 mm 3 mps 744 mmHg 86%

    Day after tomorrow, 25 July, Tuesday

    Time Temperature Precipitation Wind Pressure Humidity
    00:00 +18°C° 0.2 mm 3 mps 744 mmHg 87%
    01:00 +18°C° 0.2 mm 3 mps 744 mmHg 87%
    02:00 +17°C° 0.2 mm 3 mps 744 mmHg 87%
    03:00 +17°C° 0.2 mm 3 mps 744 mmHg 87%
    04:00 +17°C° 0.2 mm 3 mps 744 mmHg 87%
    05:00 +17°C° 0.2 mm 3 mps 744 mmHg 87%
    06:00 +18°C° 0 mm 3 mps 744 mmHg 81%
    07:00 +20°C° 0 mm 3 mps 744 mmHg 76%
    08:00 +22°C° 0 mm 3 mps 743 mmHg 70%
    09:00 +25°C° 0 mm 3 mps 743 mmHg 64%
    10:00 +26°C° 0 mm 4 mps 743 mmHg 57%
    11:00 +28°C° 0 mm 4 mps 743 mmHg 50%
    12:00 +29°C° 0 mm 4 mps 743 mmHg 48%
    13:00 +30°C° 0 mm 4 mps 743 mmHg 46%
    14:00 +30°C° 0 mm 5 mps 742 mmHg 44%
    15:00 +30°C° 0 mm 5 mps 742 mmHg 47%
    16:00 +30°C° 0 mm 4 mps 742 mmHg 49%
    17:00 +29°C° 0 mm 4 mps 742 mmHg 52%
    18:00 +28°C° 0 mm 4 mps 742 mmHg 56%
    19:00 +26°C° 0 mm 4 mps 742 mmHg 61%
    20:00 +25°C° 0 mm 4 mps 742 mmHg 66%
    21:00 +23°C° 0.2 mm 4 mps 741 mmHg 69%
    22:00 +22°C° 0.2 mm 4 mps 741 mmHg 72%
    23:00 +21°C° 0.2 mm 4 mps 741 mmHg 74%

    26 July, Wednesday

    Time Temperature Precipitation Wind Pressure Humidity
    00:00 +21°C° 0.1 mm 4 mps 741 mmHg 76%
    01:00 +21°C° 0.1 mm 4 mps 741 mmHg 78%
    02:00 +20°C° 0.1 mm 4 mps 741 mmHg 80%
    03:00 +20°C° 0.1 mm 4 mps 741 mmHg 83%
    04:00 +19°C° 0.1 mm 3 mps 741 mmHg 86%
    05:00 +19°C° 0.1 mm 3 mps 741 mmHg 89%
    06:00 +21°C° 0 mm 4 mps 741 mmHg 82%
    07:00 +22°C° 0 mm 4 mps 741 mmHg 76%
    08:00 +25°C° 0 mm 4 mps 741 mmHg 70%
    09:00 +27°C° 0 mm 5 mps 741 mmHg 62%
    10:00 +29°C° 0 mm 5 mps 741 mmHg 54%
    11:00 +32°C° 0 mm 5 mps 741 mmHg 46%
    12:00 +32°C° 0 mm 6 mps 741 mmHg 43%
    13:00 +33°C° 0 mm 6 mps 741 mmHg 40%
    14:00 +34°C° 0 mm 6 mps 740 mmHg 37%
    15:00 +34°C° 0 mm 6 mps 740 mmHg 40%
    16:00 +33°C° 0 mm 6 mps 740 mmHg 43%
    17:00 +33°C° 0 mm 5 mps 740 mmHg 46%
    18:00 +29°C° 0.7 mm 5 mps 741 mmHg 57%
    19:00 +26°C° 0.7 mm 4 mps 741 mmHg 67%
    20:00 +22°C° 0.7 mm 3 mps 741 mmHg 78%
    21:00 +22°C° 0.6 mm 3 mps 742 mmHg 82%
    22:00 +21°C° 0.6 mm 3 mps 742 mmHg 85%
    23:00 +20°C° 0.6 mm 3 mps 743 mmHg 89%

    27 July, Thursday

    Time Temperature Precipitation Wind Pressure Humidity
    00:00 +20°C° 0 mm 2 mps 743 mmHg 90%
    01:00 +19°C° 0 mm 2 mps 743 mmHg 91%
    02:00 +19°C° 0 mm 2 mps 743 mmHg 92%
    03:00 +20°C° 0.1 mm 1 mps 743 mmHg 92%
    04:00 +19°C° 0.1 mm 1 mps 743 mmHg 93%
    05:00 +19°C° 0.1 mm 1 mps 743 mmHg 93%
    06:00 +21°C° 0 mm 1 mps 744 mmHg 86%
    07:00 +22°C° 0 mm 1 mps 744 mmHg 80%
    08:00 +24°C° 0 mm 2 mps 744 mmHg 74%
    09:00 +25°C° 0 mm 2 mps 744 mmHg 66%
    10:00 +27°C° 0 mm 2 mps 744 mmHg 59%
    11:00 +29°C° 0 mm 2 mps 744 mmHg 51%
    12:00 +29°C° 0 mm 2 mps 744 mmHg 49%
    13:00 +30°C° 0 mm 3 mps 744 mmHg 46%
    14:00 +31°C° 0 mm 3 mps 744 mmHg 44%
    15:00 +31°C° 0 mm 3 mps 744 mmHg 45%
    16:00 +31°C° 0 mm 2 mps 744 mmHg 47%
    17:00 +30°C° 0 mm 2 mps 744 mmHg 49%
    18:00 +29°C° 0 mm 2 mps 744 mmHg 54%
    19:00 +27°C° 0 mm 2 mps 744 mmHg 60%
    20:00 +25°C° 0 mm 1 mps 744 mmHg 65%
    21:00 +24°C° 0.1 mm 2 mps 744 mmHg 69%
    22:00 +23°C° 0.1 mm 2 mps 745 mmHg 72%
    23:00 +21°C° 0.1 mm 2 mps 745 mmHg 76%

    28 July, Friday

    Time Temperature Precipitation Wind Pressure Humidity
    00:00 +20°C° 0.1 mm 2 mps 745 mmHg 80%
    01:00 +20°C° 0.1 mm 2 mps 745 mmHg 84%
    02:00 +19°C° 0.1 mm 2 mps 745 mmHg 88%
    03:00 +18°C° 0 mm 2 mps 745 mmHg 90%
    04:00 +18°C° 0 mm 3 mps 745 mmHg 92%
    05:00 +17°C° 0 mm 3 mps 745 mmHg 94%
    06:00 +18°C° 0 mm 3 mps 745 mmHg 90%
    07:00 +19°C° 0 mm 4 mps 746 mmHg 85%
    08:00 +20°C° 0 mm 4 mps 746 mmHg 80%
    09:00 +21°C° 0 mm 4 mps 746 mmHg 78%
    10:00 +22°C° 0 mm 4 mps 746 mmHg 75%
    11:00 +23°C° 0 mm 5 mps 746 mmHg 73%
    12:00 +25°C° 0 mm 5 mps 746 mmHg 69%
    13:00 +26°C° 0 mm 5 mps 746 mmHg 66%
    14:00 +26°C° 0 mm 5 mps 746 mmHg 63%
    15:00 +26°C° 0 mm 5 mps 746 mmHg 63%
    16:00 +26°C° 0 mm 4 mps 746 mmHg 63%
    17:00 +26°C° 0 mm 4 mps 746 mmHg 64%
    18:00 +25°C° 0 mm 3 mps 747 mmHg 70%
    19:00 +22°C° 0 mm 3 mps 747 mmHg 77%
    20:00 +21°C° 0 mm 2 mps 747 mmHg 83%
    21:00 +20°C° 0 mm 2 mps 747 mmHg 86%
    22:00 +19°C° 0 mm 2 mps 747 mmHg 89%
    23:00 +18°C° 0 mm 2 mps 748 mmHg 91%
    Show more